Temp
59 60 60 60 59 59 59 59 59 59 60 60 60 60 61 60 60 64 60 63 63 68 66 64 67 65 61 58 58 58 44 38 43 46 54 67 60 68 74 70 72 72 72 77 77
59 60 60 60 59 59 59 59 59 60 60 60 60 60 60 60 62 61 67 68 69 69 62 61 60 62 56 54 58 52 41 45 54 57 59 64 57 66 68 67 69 70 76 77 73
59 59 59 60 59 59 59 59 60 60 60 60 61 61 61 59 59 59 69 69 71 70 61 61 62 57 51 52 52 48 46 55 60 63 61 58 58 65 65 61 66 67 67 73 71
58 58 58 59 59 59 58 58 60 60 61 61 62 62 61 60 48 62 70 70 71 69 67 63 59 53 49 48 52 48 56 56 58 59 57 57 60 62 63 63 70 68 71 71 71
57 57 58 58 59 58 58 58 59 59 60 61 62 62 60 55 54 69 70 69 69 66 62 60 56 53 48 50 54 49 53 57 58 60 59 62 57 59 61 66 68 72 73 72 68
57 57 57 57 58 58 58 58 58 58 59 61 62 61 57 49 67 67 67 67 65 60 62 59 56 58 53 51 47 54 54 54 56 57 56 56 56 58 61 67 67 68 68 71 71
57 57 56 56 57 57 57 57 57 58 59 60 61 67 58 54 67 63 67 63 62 61 59 63 62 56 54 51 56 57 49 51 53 52 52 55 49 53 57 64 63 64 66 68 62
57 56 56 56 56 56 56 56 57 58 60 60 61 59 52 67 65 67 62 66 68 66 64 66 65 56 53 55 54 49 45 38 50 53 52 50 41 51 55 57 57 51 51 52 52
56 56 56 55 55 55 56 56 58 60 61 60 59 55 51 70 64 66 61 62 64 66 64 74 62 53 53 43 38 40 33 37 42 49 47 45 40 51 56 54 46 47 48 49 49
56 56 56 55 55 55 55 56 60 60 65 69 67 53 59 58 63 64 66 66 60 61 58 57 49 42 41 37 29 34 34 32 33 41 43 39 39 47 45 45 45 44 44 44 44
55 55 56 55 55 55 55 56 53 52 57 53 54 56 59 64 65 62 62 62 58 53 42 48 41 36 40 42 42 40 36 34 35 44 41 39 37 36 42 42 40 42 41 40 41
55 55 55 55 55 55 54 53 53 54 46 59 60 59 64 62 55 60 62 52 49 41 45 39 36 45 48 44 42 39 34 31 37 44 42 34 34 38 40 39 40 39 39 39 40
54 54 55 55 54 55 54 53 58 58 46 55 60 58 60 61 53 54 56 52 46 42 41 35 41 49 44 37 35 35 31 32 33 39 37 33 29 31 38 39 40 40 40 41 39
54 54 54 54 54 51 51 56 57 56 38 49 54 59 61 58 52 60 58 52 46 40 41 39 45 43 38 34 35 28 37 35 34 30 22 35 18 27 31 32 34 36 37 37 38
53 54 54 56 49 49 54 55 56 53 26 52 53 65 60 52 51 52 59 51 40 40 38 34 37 36 34 33 36 30 37 34 34 29 26 28 21 22 29 26 29 32 35 37 40
53 53 53 53 49 51 53 53 52 35 26 45 53 50 48 50 50 51 48 51 48 40 40 37 43 39 35 38 36 37 34 34 33 28 18 25 24 17 20 24 29 32 33 37 38
53 53 53 55 48 53 51 48 34 22 48 41 43 47 45 41 44 45 40 35 30 24 25 32 35 38 40 30 34 29 25 17 15 17 19 25 19 20 25 28 29 29 31 35 37
53 53 54 55 53 51 48 41 20 40 39 47 45 47 38 40 40 40 36 30 36 31 22 20 20 30 36 30 26 26 24 16 10 15 17 23 12 18 28 31 31 32 33 33 35
53 49 49 51 51 50 42 22 28 37 43 41 43 37 36 39 37 36 32 31 34 33 22 18 20 34 36 36 34 24 20 28 20 25 19 16 19 29 30 29 29 29 31 30 32
48 48 49 55 51 46 36 35 38 45 46 44 33 38 29 32 31 32 30 35 33 35 33 28 17 30 33 35 36 30 33 19 22 13 8 11 9 13 20 22 26 26 27 30 34
47 44 52 52 49 41 26 33 43 48 47 41 37 35 34 31 32 29 29 34 35 34 33 27 22 24 30 18 21 23 21 23 23 20 13 5 9 23 22 25 26 28 31 32 34
43 35 53 49 36 30 26 41 47 45 46 44 42 39 34 34 31 30 29 33 38 34 25 28 23 18 21 31 34 28 22 26 16 13 18 13 6 27 27 28 29 29 32 34 35
41 38 49 47 26 23 38 42 44 42 42 40 39 39 38 33 27 32 32 38 38 34 28 29 20 11 18 24 28 20 24 25 25 14 5 7 5 29 29 28 30 28 29 32 34
40 30 38 38 36 36 35 37 38 45 42 43 39 39 34 31 33 29 30 36 38 36 43 34 23 14 7 16 22 10 21 23 13 9 5 10 12 16 22 20 25 27 28 30 33
37 32 37 26 30 35 36 38 35 34 42 41 36 34 31 26 28 27 29 31 36 40 33 28 20 22 24 24 24 14 19 20 10 2 4 7 5 13 17 18 22 28 28 29 30
35 34 37 34 40 36 35 34 35 36 37 35 31 34 31 26 28 23 28 27 27 31 29 27 21 24 23 23 23 20 21 21 21 7 8 10 11 18 24 27 24 25 27 28 29
38 40 38 34 33 31 31 36 36 37 39 40 35 31 30 32 33 33 33 33 32 27 26 25 22 21 18 21 18 12 16 16 19 17 8 8 12 15 21 22 23 25 27 27 29
MSLP
1019.73 1019.36 1018.99 1018.53 1018.19 1017.80 1017.32 1016.97 1016.64 1016.61 1016.48 1016.50 1016.34 1016.25 1016.08 1015.66 1014.81 1014.62 1014.34 1014.70 1014.31 1013.52 1013.18 1012.89 1012.19 1012.09 1011.96 1012.00 1011.84 1012.18 1013.44 1013.75 1012.82 1011.84 1010.12 1008.84 1008.61 1007.76 1006.90 1006.62 1005.76 1006.04 1005.50 1005.06 1005.96
1020.07 1019.68 1019.22 1018.69 1018.20 1017.73 1017.41 1017.14 1016.80 1016.68 1016.59 1016.59 1016.36 1016.12 1015.93 1015.63 1015.60 1014.89 1014.72 1014.29 1013.68 1013.43 1013.33 1013.12 1012.81 1012.56 1012.45 1012.20 1012.10 1012.32 1013.11 1012.80 1011.90 1010.99 1010.12 1008.94 1008.86 1008.28 1007.38 1006.90 1006.43 1005.86 1006.18 1006.64 1007.24
1020.28 1019.80 1019.29 1018.78 1018.35 1017.94 1017.62 1017.29 1017.04 1016.71 1016.62 1016.48 1016.25 1015.99 1015.82 1015.78 1015.54 1015.19 1014.43 1014.05 1013.47 1012.98 1013.03 1012.84 1012.75 1012.82 1012.74 1012.47 1012.23 1012.13 1012.38 1011.88 1011.06 1010.39 1010.20 1009.71 1008.99 1008.51 1008.04 1007.70 1007.45 1007.07 1007.13 1007.16 1007.27
1020.22 1019.70 1019.17 1018.59 1018.11 1017.79 1017.47 1017.17 1016.90 1016.68 1016.51 1016.36 1016.21 1016.00 1015.79 1015.57 1016.08 1015.10 1014.56 1014.04 1013.46 1012.97 1012.78 1012.74 1012.84 1012.91 1013.01 1012.87 1012.29 1012.31 1011.66 1011.43 1011.02 1010.52 1010.45 1009.98 1009.07 1008.55 1008.19 1008.34 1007.70 1007.16 1006.37 1006.88 1007.00
1020.29 1019.82 1019.32 1018.86 1018.34 1017.95 1017.57 1017.30 1017.22 1017.06 1016.82 1016.55 1016.32 1016.00 1015.68 1015.99 1015.90 1014.85 1014.56 1013.98 1013.44 1013.25 1013.11 1013.10 1013.04 1013.17 1013.29 1013.06 1012.55 1012.16 1011.81 1011.34 1011.05 1010.81 1010.45 1009.84 1009.79 1009.07 1008.86 1009.08 1008.57 1007.69 1007.26 1006.12 1006.99
1020.47 1019.99 1019.46 1018.94 1018.45 1017.97 1017.61 1017.36 1017.13 1016.90 1016.91 1016.76 1016.53 1016.17 1015.98 1016.08 1015.28 1014.95 1014.67 1014.12 1013.69 1013.58 1013.17 1013.00 1013.07 1013.03 1013.11 1013.01 1013.10 1012.32 1012.04 1011.61 1011.55 1011.20 1010.72 1010.46 1010.03 1009.25 1009.63 1008.87 1008.39 1008.50 1008.50 1007.95 1006.98
1020.61 1020.10 1019.61 1019.16 1018.67 1018.24 1017.86 1017.52 1017.18 1016.85 1016.54 1016.59 1016.51 1016.02 1016.19 1016.34 1015.52 1015.30 1014.74 1014.28 1013.58 1013.45 1013.19 1012.69 1012.72 1012.99 1013.28 1013.33 1012.82 1012.74 1012.64 1012.18 1012.20 1012.04 1011.76 1011.14 1010.85 1011.03 1011.19 1010.31 1010.27 1010.17 1009.86 1009.63 1010.38
1020.61 1020.05 1019.51 1019.03 1018.60 1018.26 1017.76 1017.33 1016.94 1016.70 1016.50 1016.54 1016.52 1016.43 1016.17 1015.66 1015.32 1015.10 1014.40 1013.55 1012.78 1012.38 1012.50 1012.18 1012.41 1012.93 1013.44 1013.41 1013.28 1013.53 1013.62 1013.74 1013.37 1013.13 1012.93 1012.49 1012.43 1012.54 1012.66 1012.66 1012.69 1013.21 1013.25 1012.83 1012.54
1020.47 1019.90 1019.41 1018.94 1018.42 1018.06 1017.62 1017.17 1016.79 1016.52 1016.32 1016.55 1016.58 1016.54 1016.65 1015.83 1015.41 1015.37 1014.92 1014.49 1013.24 1012.40 1012.03 1012.03 1012.50 1013.53 1014.11 1014.80 1015.16 1015.49 1015.65 1015.17 1014.95 1014.60 1014.46 1013.90 1013.77 1013.22 1014.45 1014.36 1015.01 1015.18 1015.21 1015.17 1014.44
1020.44 1019.94 1019.46 1019.09 1018.64 1018.17 1017.56 1017.16 1016.67 1016.60 1016.18 1016.25 1016.61 1017.16 1016.80 1016.58 1016.20 1015.86 1014.89 1014.32 1014.20 1013.77 1013.47 1013.54 1014.36 1015.43 1016.33 1016.77 1017.22 1017.22 1016.90 1016.47 1016.38 1016.01 1015.29 1015.13 1015.01 1015.46 1016.21 1016.31 1017.08 1017.04 1017.24 1017.02 1016.66
1020.49 1019.92 1019.40 1019.02 1018.65 1018.31 1017.66 1017.34 1017.89 1017.73 1017.37 1017.47 1017.73 1017.58 1017.25 1016.68 1016.24 1016.30 1015.65 1014.91 1015.06 1015.55 1016.56 1016.24 1017.10 1018.04 1018.03 1017.72 1017.77 1017.90 1017.84 1017.55 1017.16 1017.02 1016.64 1016.50 1016.70 1017.57 1018.50 1018.35 1018.61 1018.63 1018.61 1018.65 1018.28
1020.62 1020.08 1019.55 1019.00 1018.47 1018.19 1018.24 1018.82 1019.39 1019.35 1018.68 1017.86 1017.56 1017.27 1016.98 1016.79 1016.99 1016.93 1016.46 1016.47 1016.97 1017.77 1017.87 1018.03 1018.99 1019.20 1018.60 1019.13 1019.09 1018.93 1018.83 1018.90 1017.94 1017.64 1017.58 1017.67 1018.18 1018.99 1020.01 1020.83 1020.91 1020.55 1019.93 1019.57 1018.77
1020.74 1020.17 1019.56 1019.05 1018.66 1018.57 1019.05 1019.68 1019.42 1018.84 1018.89 1018.18 1017.64 1017.32 1017.18 1016.99 1017.69 1017.84 1017.49 1017.70 1018.36 1018.99 1019.25 1019.89 1021.06 1020.00 1019.78 1020.58 1020.73 1020.80 1020.65 1020.42 1019.82 1018.52 1017.94 1018.05 1019.16 1020.27 1021.32 1021.63 1021.68 1021.81 1021.71 1020.78 1020.33
1020.75 1020.17 1019.52 1018.84 1019.07 1019.42 1019.73 1019.71 1019.26 1019.14 1019.40 1018.93 1018.04 1017.55 1017.48 1017.23 1018.34 1018.78 1018.53 1019.11 1019.70 1020.47 1020.67 1021.29 1021.65 1021.08 1021.22 1022.14 1022.70 1021.98 1021.24 1021.05 1020.29 1019.87 1019.58 1019.30 1020.90 1022.01 1022.63 1022.61 1022.74 1022.80 1022.41 1021.83 1021.04
1020.88 1020.22 1019.69 1018.92 1019.75 1020.11 1020.22 1019.67 1019.33 1019.55 1020.13 1019.53 1018.68 1017.94 1018.48 1019.22 1020.40 1019.92 1019.78 1020.06 1021.20 1021.85 1022.36 1023.47 1022.73 1022.16 1022.77 1023.68 1023.82 1022.97 1022.12 1021.26 1020.62 1020.24 1020.30 1020.26 1021.81 1024.38 1023.98 1023.79 1023.93 1024.10 1023.94 1023.14 1022.10
1020.98 1020.41 1020.02 1019.85 1020.29 1020.12 1019.89 1019.60 1019.73 1020.45 1021.33 1020.61 1019.73 1019.83 1020.05 1020.59 1021.09 1021.16 1022.03 1021.29 1022.21 1022.73 1023.44 1024.21 1023.81 1024.43 1024.95 1024.53 1024.36 1023.62 1021.76 1020.72 1019.92 1019.98 1020.60 1021.10 1022.20 1025.35 1025.83 1026.49 1025.97 1025.47 1024.98 1024.01 1023.04
1021.06 1020.70 1020.37 1020.36 1020.46 1019.73 1019.83 1020.20 1021.23 1022.27 1022.57 1022.32 1021.63 1021.39 1021.74 1022.40 1022.39 1022.59 1023.44 1023.78 1024.87 1024.82 1025.03 1025.03 1024.74 1025.28 1025.08 1024.85 1023.98 1023.67 1022.07 1021.05 1019.90 1020.13 1020.89 1022.08 1023.80 1026.99 1027.74 1027.58 1027.41 1026.87 1026.00 1024.87 1023.75
1020.87 1020.55 1020.23 1019.96 1019.61 1019.67 1020.30 1021.32 1023.20 1024.35 1024.05 1023.41 1023.01 1022.65 1023.46 1023.96 1023.97 1024.22 1024.90 1025.82 1026.59 1027.16 1027.00 1026.66 1025.10 1025.88 1025.92 1025.94 1025.18 1024.17 1023.35 1022.24 1021.10 1020.48 1021.63 1023.47 1026.01 1028.04 1028.36 1028.44 1028.35 1027.88 1026.91 1025.59 1024.02
1020.54 1020.70 1020.53 1019.92 1019.41 1019.68 1020.84 1023.69 1025.49 1025.28 1025.07 1024.53 1023.92 1024.19 1024.94 1025.38 1025.52 1025.65 1026.65 1027.54 1028.18 1028.51 1029.12 1028.35 1027.41 1026.95 1026.73 1026.09 1026.01 1024.57 1023.54 1022.67 1022.26 1021.71 1022.85 1025.89 1027.25 1026.71 1027.99 1028.13 1028.32 1028.01 1027.11 1025.87 1024.47
1021.01 1021.13 1020.67 1019.68 1019.37 1020.14 1022.33 1025.09 1025.80 1025.63 1025.25 1025.12 1025.48 1025.84 1026.29 1026.61 1026.70 1026.87 1027.80 1028.80 1028.93 1029.36 1029.39 1029.70 1028.73 1027.80 1026.85 1026.10 1026.17 1024.95 1024.31 1022.96 1022.60 1022.81 1024.61 1027.39 1028.41 1029.30 1028.88 1028.86 1028.69 1028.29 1027.70 1026.57 1024.85
1021.25 1021.95 1020.80 1020.04 1019.99 1021.90 1025.14 1025.87 1025.96 1025.85 1025.65 1025.81 1026.32 1026.68 1027.26 1027.56 1027.51 1027.90 1028.88 1029.27 1029.36 1029.51 1029.44 1029.68 1029.83 1029.02 1027.73 1027.59 1027.22 1025.59 1025.14 1024.99 1024.99 1025.37 1026.07 1028.73 1030.49 1030.68 1030.03 1029.79 1029.22 1028.69 1027.77 1026.77 1025.45
1022.19 1022.89 1021.32 1020.77 1022.71 1024.92 1026.24 1026.02 1026.01 1026.19 1026.13 1026.42 1026.72 1027.35 1027.92 1028.10 1028.32 1028.61 1029.28 1029.29 1029.38 1029.27 1029.65 1029.81 1029.93 1029.67 1029.29 1028.72 1028.41 1028.34 1027.62 1026.74 1026.82 1028.22 1028.63 1030.05 1031.84 1031.28 1030.67 1030.00 1029.15 1028.48 1027.45 1026.53 1025.67
1024.10 1024.03 1022.24 1022.00 1025.43 1026.82 1026.73 1026.78 1026.76 1026.74 1026.83 1027.08 1027.57 1028.05 1028.45 1028.77 1029.17 1029.28 1029.44 1029.63 1029.40 1029.54 1029.83 1029.99 1030.34 1030.26 1029.36 1029.47 1029.31 1029.37 1029.41 1028.88 1029.13 1030.37 1031.73 1032.06 1032.86 1031.59 1031.01 1030.04 1028.99 1028.32 1027.34 1026.21 1025.19
1024.62 1025.83 1025.47 1025.53 1026.65 1027.14 1027.41 1027.59 1027.44 1027.24 1027.63 1027.81 1028.67 1028.77 1029.12 1029.43 1029.68 1029.90 1029.91 1029.73 1029.54 1029.56 1029.45 1029.76 1030.83 1031.35 1031.53 1031.61 1031.66 1031.49 1031.10 1031.07 1031.36 1032.87 1034.02 1034.24 1033.70 1032.20 1031.13 1030.28 1029.17 1028.20 1027.40 1026.49 1025.41
1025.61 1027.16 1027.17 1028.40 1028.21 1028.01 1027.85 1028.22 1028.23 1028.19 1028.21 1028.56 1029.19 1029.82 1030.20 1030.32 1030.36 1030.55 1030.44 1030.19 1029.77 1029.50 1029.68 1030.33 1031.06 1031.41 1031.67 1031.96 1031.87 1032.12 1032.38 1032.70 1033.20 1034.35 1035.27 1034.92 1034.28 1032.93 1031.68 1030.85 1029.67 1028.56 1027.62 1026.59 1025.58
1026.72 1027.55 1027.92 1028.66 1028.43 1028.56 1028.80 1028.96 1028.92 1028.86 1028.92 1029.44 1029.96 1030.23 1030.47 1030.80 1031.13 1031.26 1031.11 1030.78 1030.40 1030.03 1030.30 1030.45 1030.87 1031.25 1031.55 1032.01 1032.15 1032.49 1032.82 1033.32 1033.84 1035.11 1035.23 1034.91 1034.29 1032.90 1031.72 1030.66 1029.81 1028.69 1027.62 1026.55 1025.51
1027.68 1027.80 1028.21 1029.62 1029.46 1029.42 1029.49 1029.20 1029.30 1029.25 1029.60 1029.68 1030.19 1030.43 1030.53 1030.67 1030.76 1030.65 1030.62 1030.54 1030.39 1030.68 1030.70 1030.54 1030.98 1031.27 1031.50 1032.12 1032.22 1032.74 1033.27 1033.54 1033.85 1034.27 1034.97 1034.89 1034.28 1032.95 1031.99 1030.76 1029.66 1028.56 1027.74 1026.67 1025.63
Wind_Speed
18 17 16 16 15 14 13 12 9 9 9 9 9 9 10 12 13 4 13 6 7 14 10 8 7 7 1 3 2 4 3 3 5 2 8 17 7 5 6 6 8 7 3 7 11
17 17 16 15 15 14 13 9 9 8 8 8 8 9 10 10 2 8 6 10 13 7 5 3 8 9 5 3 3 4 4 8 8 6 10 14 5 7 5 7 8 8 8 9 3
17 17 16 16 15 13 10 9 8 9 8 8 8 8 9 6 2 6 10 14 18 16 3 2 3 1 3 2 3 2 6 9 12 13 8 8 6 4 6 7 6 9 5 4 4
18 18 18 18 17 15 12 10 11 11 12 10 9 10 9 2 2 6 13 13 18 11 7 6 6 5 3 4 4 5 6 4 6 3 4 7 9 10 4 4 8 9 14 7 11
18 18 17 16 15 13 11 10 10 9 9 10 10 11 4 7 2 9 12 11 10 9 5 5 5 4 4 5 8 3 4 8 6 7 7 6 9 8 8 9 9 15 20 23 8
17 17 17 16 15 15 14 13 12 11 8 7 8 6 4 7 5 9 10 12 10 5 7 3 3 4 4 4 0 5 7 10 8 10 6 11 8 6 16 22 22 18 17 20 21
17 16 16 15 15 14 13 11 11 12 13 10 9 4 6 2 6 8 9 8 4 2 4 4 4 4 4 8 2 7 7 7 5 8 5 7 6 6 12 19 19 20 21 24 31
18 16 15 15 14 13 13 12 11 11 11 9 9 2 2 2 5 9 7 15 12 6 5 7 4 0 3 4 8 6 5 5 6 9 5 4 8 8 11 19 22 26 23 24 27
18 18 17 15 15 12 13 12 10 11 11 5 5 2 4 9 11 8 5 11 10 11 4 4 2 1 7 4 5 7 4 7 7 5 4 6 6 17 20 19 18 19 20 21 23
18 17 17 15 14 14 15 6 9 9 4 2 2 5 7 8 5 8 10 8 5 12 11 10 7 6 6 8 4 7 7 5 4 8 6 7 9 17 23 24 20 20 22 23 24
19 19 18 16 13 11 7 5 8 9 10 6 3 4 6 9 4 11 8 11 10 9 7 8 11 7 8 6 3 4 5 6 6 8 8 8 7 14 17 22 23 21 22 24 24
19 18 17 17 16 11 4 6 2 4 3 2 3 2 4 2 8 17 7 9 8 8 8 9 14 16 10 20 12 7 5 6 8 12 7 4 6 15 18 18 18 21 23 25 26
19 19 18 17 12 5 7 4 5 3 3 1 1 4 7 3 5 17 7 6 7 11 10 4 10 18 17 22 22 10 15 18 14 15 5 3 5 14 14 17 21 21 20 21 24
19 18 18 20 7 2 4 9 8 2 6 6 6 6 13 3 7 11 10 6 10 7 7 6 14 16 11 20 20 15 18 20 17 9 4 7 6 15 17 18 22 23 23 23 25
17 17 17 9 2 4 5 7 6 4 6 5 4 3 7 13 6 13 14 7 9 7 8 7 15 17 17 19 19 16 21 19 16 12 4 0 3 8 14 18 22 22 23 23 22
15 15 16 6 4 3 5 5 4 8 3 6 3 9 10 7 7 8 14 9 5 4 13 6 5 7 12 20 20 21 19 18 10 5 4 5 4 9 10 16 20 20 21 23 23
13 11 5 1 4 4 3 4 7 9 7 8 6 6 6 8 7 9 12 24 13 9 13 4 3 9 14 18 15 25 15 5 4 4 3 12 14 6 14 16 17 20 21 22 21
13 7 5 3 4 1 4 8 12 4 4 5 5 5 6 10 5 12 8 5 13 4 5 7 16 17 15 18 15 17 11 3 5 4 6 11 7 5 13 15 15 17 19 19 22
8 3 4 5 5 3 7 10 5 3 5 7 7 6 7 7 6 8 8 10 10 13 5 7 8 13 13 18 10 15 12 16 7 8 2 5 4 7 19 20 19 20 21 21 21
3 3 6 13 4 6 8 6 3 3 4 3 5 6 6 8 7 6 7 8 3 6 3 5 8 9 21 9 11 13 12 6 3 3 7 3 4 7 16 18 20 19 18 19 21
4 5 6 10 6 9 6 4 6 7 7 5 3 3 4 5 4 4 7 6 6 7 5 2 2 13 12 6 16 13 10 6 0 5 4 4 3 10 8 12 14 15 16 16 17
4 5 7 5 8 3 3 3 4 5 7 6 3 6 2 4 5 4 2 3 4 5 6 3 1 8 4 9 9 13 11 9 3 7 5 4 2 7 9 9 10 13 15 15 13
4 1 6 6 6 3 3 5 4 4 4 4 6 6 4 4 2 3 4 2 5 8 5 5 4 6 7 2 8 9 15 11 5 4 9 4 5 9 9 10 10 11 14 15 15
5 4 6 7 2 7 5 5 3 3 5 5 5 5 6 4 3 1 3 3 3 3 12 3 0 4 4 1 5 6 15 16 6 4 2 2 5 9 13 12 15 13 13 13 13
5 1 4 3 6 6 5 4 5 5 4 7 4 6 4 3 5 2 2 5 4 5 5 3 1 2 6 10 5 1 8 11 10 3 5 7 3 8 10 9 10 13 14 15 15
4 4 5 2 2 7 6 4 3 3 3 2 3 4 3 2 4 5 2 2 6 4 4 4 3 4 8 3 4 7 8 9 7 3 3 4 6 5 10 9 10 12 15 17 17
3 3 5 6 3 5 1 2 2 2 5 5 3 2 4 4 5 9 8 7 9 3 4 2 2 4 2 6 3 5 2 2 5 1 4 3 8 5 9 12 12 14 13 15 15
Wind_Direction
3 0 357 356 353 351 354 353 354 346 353 357 356 5 357 344 324 2 36 277 286 295 311 298 339 352 39 233 260 112 81 260 262 298 270 306 334 307 291 341 327 0 320 161 142
1 359 358 357 356 357 359 359 6 1 9 8 10 5 346 340 314 34 288 301 324 318 323 331 316 3 333 272 276 119 141 236 216 238 281 286 309 312 338 336 333 346 12 60 96
2 0 359 359 359 0 1 10 11 4 12 13 10 356 331 307 34 332 310 341 336 339 226 266 282 233 264 31 234 224 207 235 263 267 295 299 327 293 345 342 304 307 145 166 197
1 360 359 358 357 356 355 355 357 357 354 360 1 341 328 353 44 280 324 333 334 332 358 346 352 18 326 314 323 309 266 232 268 303 313 300 306 322 174 239 284 290 297 205 176
359 357 354 353 349 346 344 338 342 348 349 353 348 334 24 37 300 280 329 334 336 338 3 351 0 9 343 291 318 224 304 315 302 340 344 342 333 279 343 7 322 351 336 311 218
355 354 350 348 345 344 346 346 345 340 350 356 339 303 70 51 273 324 341 340 332 330 317 329 297 267 255 297 16 298 311 307 354 6 32 5 314 31 0 357 358 358 345 334 308
351 348 348 346 341 340 342 341 332 325 325 346 3 4 63 59 315 325 322 298 272 247 268 253 252 75 335 319 291 281 305 342 28 359 20 330 354 20 356 352 351 349 351 356 21
347 346 345 346 342 339 331 329 318 316 317 338 340 40 130 279 345 353 305 336 327 271 200 256 196 185 184 267 334 343 36 25 325 25 356 61 282 335 4 0 3 24 16 9 6
345 345 346 343 338 338 326 317 308 322 306 297 37 100 353 321 2 320 359 329 310 334 307 237 90 101 21 13 5 7 300 321 335 30 340 40 307 329 11 20 33 22 19 11 6
343 343 345 344 338 338 323 289 299 340 20 92 11 31 353 311 330 322 336 3 353 2 10 13 40 44 18 36 315 292 306 284 301 340 352 11 324 20 37 32 26 21 16 13 7
341 341 341 343 340 340 5 11 18 355 35 121 184 144 267 289 24 352 328 356 13 42 16 348 60 19 327 294 305 346 344 323 353 6 342 347 344 56 38 31 19 14 16 11 7
339 337 340 341 338 347 67 77 82 224 359 102 93 335 308 295 22 354 1 34 21 19 10 16 39 346 322 24 4 11 12 341 308 343 329 329 337 62 42 31 21 11 11 9 3
342 340 340 337 326 39 81 43 309 42 120 313 217 348 304 73 42 357 23 11 35 18 358 67 17 9 42 23 4 339 17 346 318 329 265 334 73 58 23 26 16 15 9 11 7
345 342 339 330 61 308 54 320 344 50 78 358 354 0 348 55 35 29 4 34 15 19 357 45 354 7 20 20 1 327 356 333 319 337 290 66 288 38 13 17 19 6 6 359 4
345 341 344 21 168 49 292 319 337 57 59 329 2 347 353 87 319 8 1 39 34 37 49 316 359 13 7 342 348 299 308 294 284 275 264 3 135 355 15 10 8 2 358 358 359
347 340 345 16 37 235 307 332 52 47 55 349 22 8 33 34 24 5 35 26 66 6 46 299 33 33 9 344 322 308 294 290 249 225 203 141 168 40 19 5 2 356 351 356 353
335 331 346 17 284 302 342 47 44 83 339 347 328 355 67 348 8 14 41 44 44 7 352 5 27 18 355 346 335 332 306 303 205 180 221 109 72 45 26 12 12 356 348 350 351
329 323 300 220 283 18 53 57 69 18 344 345 318 359 77 13 2 7 23 41 35 41 298 337 333 8 332 346 324 318 322 273 284 227 130 59 95 72 43 26 12 2 353 350 349
329 351 333 290 292 89 72 55 176 352 326 330 319 42 17 1 350 7 68 20 37 32 20 338 312 336 340 324 341 319 334 287 263 239 102 63 356 65 22 19 9 360 356 351 347
77 32 340 334 22 63 70 107 101 31 340 10 39 20 10 342 5 16 33 21 56 49 1 314 301 330 328 331 343 326 332 343 331 296 101 70 65 7 16 7 359 357 355 351 352
59 53 276 340 51 50 90 90 113 44 41 39 57 16 27 344 311 33 354 61 49 355 27 283 210 330 350 12 4 352 352 346 128 5 37 78 45 355 20 358 352 348 349 351 357
77 44 299 18 55 38 68 71 59 29 21 31 81 66 13 332 324 99 72 85 315 24 2 284 247 322 308 53 8 19 1 347 13 4 58 90 232 350 342 335 338 338 340 336 349
80 297 319 64 90 357 67 62 68 41 23 32 28 74 7 345 68 52 34 171 55 30 3 321 323 333 348 263 27 25 14 10 28 66 4 63 300 332 327 325 332 333 333 338 336
80 37 339 33 54 104 108 62 87 21 41 56 57 53 356 359 11 42 19 347 351 359 1 42 339 177 188 334 37 17 21 24 64 55 201 126 270 307 337 334 332 326 326 324 335
43 271 187 344 348 69 65 61 57 14 40 38 58 37 340 321 327 21 345 330 317 320 337 80 344 138 108 98 50 143 44 40 48 249 95 277 286 289 307 307 312 319 323 330 329
92 77 19 69 43 57 21 22 76 350 49 58 78 328 54 149 203 285 329 262 247 329 322 338 292 172 202 192 325 72 84 64 49 11 352 295 292 236 293 312 324 325 335 336 335
339 0 96 328 37 70 339 51 100 86 71 101 130 39 322 255 242 236 222 230 251 280 277 19 12 324 340 286 123 27 275 122 66 105 164 13 261 296 316 327 323 328 327 330 332